Terminal Aerodrome Forecast
Issued by NWS

Current Version | Previous Version | Graphics & Text | Print | Product List | Glossary On
Versions: 1 2 3 4 5 6 7 8 9 10 11 12 13 14 15 16 17 18 19 20
000
FTUS41 KRLX 160200 AAA
TAFCKB
TAF AMD
KCKB 160224Z 1602/1624 00000KT P6SM BKN250
     FM160500 00000KT P6SM BKN080
     FM160900 00000KT 6SM BR BKN015
     FM161400 36003KT P6SM BKN010
     FM161600 31003KT P6SM BKN025
     FM161700 31003KT P6SM BKN035
     FM162000 31005KT P6SM SCT040
     FM162300 00000KT P6SM SCT250=

USA.gov is the U.S. government's official web portal to all federal, state and local government web resources and services.